Weather History for Pittsburg, KS

Change the Weather History Date:

Saturday, January 19, 2013

  Actual Average (KJLN) Record (KJLN)
Temperature  
Mean Temperature 48 °F 35 °F  
Max Temperature 60 °F 45 °F 70 °F (1952)
Min Temperature 37 °F 25 °F -8 °F (1984)
Degree Days  
Heating Degree Days 16 30  
Month to date heating degree days 570  
Since 1 July heating degree days 2187  
Cooling Degree Days 0 0  
Month to date cooling degree days 0  
Year to date cooling degree days 0  
Moisture  
Dew Point 35 °F    
Average Humidity 60    
Maximum Humidity 96    
Minimum Humidity 45    
Precipitation  
Precipitation 0.00 in 0.06 in 1.68 in (1990)
Month to date precipitation 1.26  
Year to date precipitation 1.26  
Sea Level Pressure  
Sea Level Pressure 30.11 in    
Wind  
Wind Speed 13 mph (SW)    
Max Wind Speed 20 mph    
Max Gust Speed 28 mph    
Visibility 10 miles    
Events      
T = Trace of Precipitation, MM = Missing Value Source: NWS Daily Summary

Daily Weather History Graph

Daily Weather History Graph

Search for Another Location

Airport:

Trip Planner

Search our weather history database for the weather conditions in past years. The results will help you decide how hot, cold, wet, or windy it might be!

Date:

Astronomy

Jan. 19, 2013 Rise Set
Actual Time 7:30 AM CST 5:29 PM CST
Civil Twilight 7:02 AM CST 5:57 PM CST
Nautical Twilight 6:30 AM CST 6:29 PM CST
Astronomical Twilight 5:59 AM CST 7:00 PM CST
Moon 11:54 AM CST (1/19) 1:07 AM CST (1/19)
Length of Visible Light 10h 55m
Length of Day
9h 58m
First Quarter, 57% of the Moon is Illuminated
Jan 19
First Quarter
Jan 26
Full
Feb 3
Last Quarter
Feb 10
New
Feb 17
First Quarter

Hourly Weather History & Observations

Time (CST) Temp. Windchill Dew Point Humidity Pressure Visibility Wind Dir Wind Speed Gust Speed Precip Events Conditions
12:15 AM 43.0 °F 36.0 °F 31.3 °F 63% 30.12 in 10.0 mi SSW 13.8 mph - N/A   Clear
12:35 AM 43.0 °F 35.7 °F 31.5 °F 64% 30.12 in 10.0 mi SSW 15.0 mph 21.9 mph N/A   Clear
12:55 AM 42.8 °F 35.4 °F 31.6 °F 65% 30.12 in 10.0 mi SSW 15.0 mph 19.6 mph N/A   Clear
1:15 AM 43.0 °F 35.1 °F 31.8 °F 65% 30.12 in 10.0 mi SSW 17.3 mph 23.0 mph N/A   Clear
1:35 AM 43.5 °F 35.8 °F 32.0 °F 64% 30.12 in 10.0 mi SSW 17.3 mph 24.2 mph N/A   Clear
1:55 AM 44.1 °F 36.2 °F 32.0 °F 63% 30.11 in 10.0 mi SSW 18.4 mph 25.3 mph N/A   Clear
2:15 AM 44.2 °F 37.0 °F 32.0 °F 62% 30.11 in 10.0 mi SSW 16.1 mph 26.5 mph N/A   Clear
2:35 AM 44.2 °F 36.7 °F 32.0 °F 62% 30.11 in 10.0 mi SSW 17.3 mph 24.2 mph N/A   Clear
2:55 AM 44.2 °F 36.2 °F 32.0 °F 62% 30.10 in 10.0 mi SSW 19.6 mph 26.5 mph N/A   Clear
3:15 AM 44.4 °F 36.9 °F 32.0 °F 62% 30.10 in 10.0 mi SW 17.3 mph 25.3 mph N/A   Clear
3:35 AM 44.2 °F 36.7 °F 32.0 °F 62% 30.09 in 10.0 mi SW 17.3 mph 24.2 mph N/A   Clear
3:55 AM 44.4 °F 36.4 °F 32.0 °F 62% 30.09 in 10.0 mi SW 19.6 mph 27.6 mph N/A   Clear
4:15 AM 44.2 °F 36.4 °F 32.0 °F 62% 30.08 in 10.0 mi SSW 18.4 mph 25.3 mph N/A   Clear
4:35 AM 44.2 °F 36.7 °F 32.0 °F 62% 30.09 in 10.0 mi SW 17.3 mph 21.9 mph N/A   Clear
4:55 AM 44.2 °F 37.3 °F 32.0 °F 62% 30.08 in 10.0 mi SW 15.0 mph 23.0 mph N/A   Clear
5:15 AM 44.2 °F 37.6 °F 32.0 °F 62% 30.08 in 10.0 mi SSW 13.8 mph 21.9 mph N/A   Clear
5:35 AM 44.1 °F 36.8 °F 32.0 °F 63% 30.08 in 10.0 mi SSW 16.1 mph 23.0 mph N/A   Clear
7:15 AM 43.0 °F 35.4 °F 32.0 °F 65% 30.08 in 10.0 mi SW 16.1 mph 21.9 mph N/A   Clear
7:55 AM 43.0 °F 35.1 °F 32.4 °F 66% 30.08 in 10.0 mi SW 17.3 mph 20.7 mph N/A   Clear
8:15 AM 43.0 °F 35.1 °F 32.4 °F 66% 30.09 in 10.0 mi SW 17.3 mph 23.0 mph N/A   Clear
8:35 AM 43.7 °F 35.4 °F 32.7 °F 65% 30.08 in 10.0 mi SW 19.6 mph 26.5 mph N/A   Clear
9:35 AM 47.7 °F - 35.8 °F 63% 30.11 in 10.0 mi SW 16.1 mph 24.2 mph N/A   Clear
9:55 AM 48.2 °F - 36.0 °F 63% 30.11 in 10.0 mi SW 19.6 mph 26.5 mph N/A   Clear
10:15 AM 50.4 °F - 37.4 °F 61% 30.12 in 10.0 mi WSW 15.0 mph 25.3 mph N/A   Clear
10:35 AM 50.9 °F - 37.4 °F 60% 30.12 in 10.0 mi SW 15.0 mph 24.2 mph N/A   Clear
11:15 AM 52.5 °F - 37.2 °F 56% 30.11 in 10.0 mi WSW 19.6 mph 25.3 mph N/A   Clear
11:35 AM 53.2 °F - 37.2 °F 55% 30.09 in 10.0 mi SW 16.1 mph - N/A   Clear
11:55 AM 55.2 °F - 38.5 °F 53% 30.09 in 10.0 mi WSW 18.4 mph 24.2 mph N/A   Clear
12:15 PM 55.8 °F - 38.5 °F 52% 30.07 in 10.0 mi SW 17.3 mph 23.0 mph N/A   Clear
12:35 PM 55.8 °F - 38.1 °F 52% 30.07 in 10.0 mi SW 16.1 mph 20.7 mph N/A   Clear
12:55 PM 55.9 °F - 37.8 °F 51% 30.06 in 10.0 mi WSW 13.8 mph 21.9 mph N/A   Clear
1:15 PM 57.7 °F - 39.0 °F 50% 30.06 in 10.0 mi WSW 16.1 mph - N/A   Clear
1:35 PM 58.3 °F - 38.1 °F 47% 30.04 in 10.0 mi SW 15.0 mph 20.7 mph N/A   Clear
1:55 PM 58.3 °F - 38.3 °F 47% 30.04 in 10.0 mi WSW 12.7 mph 21.9 mph N/A   Clear
2:15 PM 58.3 °F - 38.5 °F 48% 30.04 in 10.0 mi SW 12.7 mph - N/A   Clear
2:35 PM 58.3 °F - 39.0 °F 49% 30.04 in 10.0 mi SW 12.7 mph - N/A   Clear
2:55 PM 59.2 °F - 39.0 °F 47% 30.04 in 10.0 mi SW 10.4 mph - N/A   Clear
3:15 PM 60.1 °F - 39.6 °F 47% 30.05 in 10.0 mi WSW 12.7 mph - N/A   Clear
3:35 PM 60.6 °F - 39.9 °F 46% 30.06 in 10.0 mi WSW 10.4 mph - N/A   Clear
3:55 PM 60.8 °F - 39.6 °F 46% 30.06 in 10.0 mi WSW 10.4 mph 16.1 mph N/A   Clear
4:15 PM 60.8 °F - 39.0 °F 45% 30.07 in 10.0 mi WSW 9.2 mph - N/A   Clear
4:35 PM 59.9 °F - 39.4 °F 47% 30.08 in 10.0 mi WSW 5.8 mph - N/A   Clear
4:55 PM 58.6 °F - 39.6 °F 49% 30.09 in 10.0 mi WSW 5.8 mph - N/A   Clear
5:15 PM 58.1 °F - 39.4 °F 50% 30.09 in 10.0 mi WSW 4.6 mph - N/A   Clear
5:35 PM 56.3 °F - 37.2 °F 49% 30.09 in 10.0 mi SW 4.6 mph - N/A   Clear
5:55 PM 54.5 °F - 37.4 °F 52% 30.10 in 10.0 mi WSW 3.5 mph - N/A   Clear
6:15 PM 54.3 °F - 37.0 °F 52% 30.11 in 10.0 mi WSW 4.6 mph - N/A   Clear
6:35 PM 53.4 °F - 37.0 °F 54% 30.12 in 10.0 mi WSW 3.5 mph - N/A   Clear
6:55 PM 46.2 °F - 35.6 °F 66% 30.12 in 10.0 mi Calm Calm - N/A   Clear
7:15 PM 46.8 °F - 36.5 °F 67% 30.14 in 10.0 mi Calm Calm - N/A   Clear
7:35 PM 42.3 °F - 34.9 °F 75% 30.14 in 10.0 mi Calm Calm - N/A   Clear
7:55 PM 41.5 °F - 34.3 °F 76% 30.15 in 10.0 mi Calm Calm - N/A   Clear
8:15 PM 40.8 °F - 34.2 °F 77% 30.16 in 10.0 mi Calm Calm - N/A   Clear
8:35 PM 40.6 °F - 35.4 °F 82% 30.16 in 10.0 mi Calm Calm - N/A   Clear
8:55 PM 40.8 °F - 34.9 °F 79% 30.16 in 10.0 mi Calm Calm - N/A   Clear
9:15 PM 37.0 °F - 34.2 °F 89% 30.17 in 10.0 mi Calm Calm - N/A   Clear
9:35 PM 37.2 °F 32.6 °F 36.1 °F 96% 30.18 in 10.0 mi NNW 5.8 mph - N/A   Clear
9:55 PM 40.8 °F 36.2 °F 34.7 °F 79% 30.19 in 10.0 mi North 6.9 mph - N/A   Clear
10:15 PM 47.8 °F - 31.8 °F 54% 30.20 in 10.0 mi North 6.9 mph - N/A   Clear
10:35 PM 48.2 °F - 30.6 °F 51% 30.20 in 10.0 mi North 3.5 mph - N/A   Clear
10:55 PM 46.2 °F 44.1 °F 29.1 °F 51% 30.21 in 10.0 mi North 4.6 mph - N/A   Clear
11:15 PM 44.8 °F 41.0 °F 28.4 °F 53% 30.22 in 10.0 mi NNE 6.9 mph - N/A   Clear
11:35 PM 43.3 °F 40.7 °F 28.0 °F 55% 30.22 in 10.0 mi NE 4.6 mph - N/A   Clear
11:55 PM 43.2 °F 40.5 °F 27.9 °F 55% 30.22 in 10.0 mi NE 4.6 mph - N/A   Clear